User: anonymous   Login
Location: Unspecified
(0.0000°N, 0.0000°E)
Time: 09:56:59
(UTC+01:00)
Language:

Meteor 1-10 Rocket - Orbit

View from above orbital plane
View from above orbital plane
View from above satellite
View from above satellite

Ground track
Ground track

The orbit data is extracted from the following two-line orbital elements,

1 05732U 71120B   14304.47611470  .00000180  00000-0  10153-3 0  4100
2 05732 081.2503 330.1461 0051087 220.5742 247.6045 14.05838516204082
Epoch (UTC): 31 October 2014 11:25:36
Eccentricity: 0.0051087
inclination: 81.2503°
perigee height: 836 km
apogee height: 910 km
right ascension of ascending node: 330.1461°
argument of perigee: 220.5742°
revolutions per day: 14.05838516
mean anomaly at epoch: 247.6045°
orbit number at epoch: 20408

The dashed part of the orbit path shows where the satellite is in the earth's shadow,  

DLR